Weather History for Makassar, Indonesia

Change the Weather History Date:

Monday, October 22, 2012

  Actual Average Record
Temperature  
Mean Temperature 82 °F -  
Max Temperature 94 °F - - ()
Min Temperature 69 °F - - ()
Cooling Degree Days 16    
Growing Degree Days 32 (Base 50)    
Moisture  
Dew Point 72 °F    
Average Humidity 75    
Maximum Humidity 100    
Minimum Humidity 43    
Precipitation  
Precipitation 0.00 in - - ()
Sea Level Pressure  
Sea Level Pressure 29.78 in    
Wind  
Wind Speed 4 mph ()    
Max Wind Speed 13 mph    
Max Gust Speed -    
Visibility 5.3 miles    
Events      
T = Trace of Precipitation, MM = Missing Value Source: Averaged Metar Reports

Daily Weather History Graph

Daily Weather History Graph

Search for Another Location

Airport:

Trip Planner

Search our weather history database for the weather conditions in past years. The results will help you decide how hot, cold, wet, or windy it might be!

Date:

Astronomy

Oct. 22, 2012 Rise Set
Actual Time 5:38 AM WITA 5:53 PM WITA
Civil Twilight 5:17 AM WITA 6:14 PM WITA
Nautical Twilight 4:53 AM WITA 6:39 PM WITA
Astronomical Twilight 4:28 AM WITA 7:04 PM WITA
Moon 11:54 AM WITA No Moon Set
Length of Visible Light 12h 57m
Length of Day
12h 14m
Waxing Crescent, 50% of the Moon is Illuminated
Oct 22
Waxing Crescent
Oct 30
Full
Nov 7
Last Quarter
Nov 14
New
Nov 20
First Quarter

Hourly Weather History & Observations

Time (WITA) Temp. Heat Index Dew Point Humidity Pressure Visibility Wind Dir Wind Speed Gust Speed Precip Events Conditions
12:00 AM 75.2 °F - 71.6 °F 89% 29.80 in 5.0 mi SE 3.5 mph - N/A   Partly Cloudy
12:30 AM 73.4 °F - 71.6 °F 94% 29.80 in 5.0 mi Variable 2.3 mph - N/A   Partly Cloudy
1:00 AM 73.4 °F - 71.6 °F 94% 29.77 in 5.0 mi SE 3.5 mph - N/A   Partly Cloudy
1:30 AM 73.4 °F - 71.6 °F 94% 29.77 in 5.0 mi ESE 3.5 mph - N/A   Partly Cloudy
2:00 AM 72 °F - 72 °F 100% 29.78 in 5 mi SSE 3.5 mph - -   Scattered Clouds
2:00 AM 73.4 °F - 71.6 °F 94% 29.77 in 5.0 mi SSE 3.5 mph - N/A   Partly Cloudy
2:30 AM 71.6 °F - 71.6 °F 100% 29.77 in 5.0 mi SE 2.3 mph - N/A   Partly Cloudy
3:00 AM 71.6 °F - 69.8 °F 94% 29.77 in 5.0 mi Variable 2.3 mph - N/A   Partly Cloudy
3:30 AM 69.8 °F - 69.8 °F 100% 29.80 in 5.0 mi Variable 1.2 mph - N/A   Partly Cloudy
4:00 AM 69.8 °F - 69.8 °F 100% 29.80 in 5.0 mi ESE 3.5 mph - N/A   Partly Cloudy
4:30 AM 69.8 °F - 69.8 °F 100% 29.80 in 5.0 mi ENE 2.3 mph - N/A   Partly Cloudy
5:00 AM 70 °F - 70 °F 98% 29.81 in 5 mi ESE 4.6 mph - -   Scattered Clouds
5:00 AM 69.8 °F - 68.0 °F 94% 29.80 in 5.0 mi ESE 4.6 mph - N/A   Partly Cloudy
5:30 AM 69.8 °F - 68.0 °F 94% 29.80 in 5.0 mi Variable 2.3 mph - N/A   Partly Cloudy
6:00 AM 69.8 °F - 68.0 °F 94% 29.83 in 5.6 mi ESE 2.3 mph - N/A   Partly Cloudy
6:30 AM 71.6 °F - 68.0 °F 88% 29.83 in 5.6 mi ESE 2.3 mph - N/A   Partly Cloudy
7:00 AM 73.4 °F - 68.0 °F 83% 29.83 in 6.2 mi ENE 3.5 mph - N/A   Partly Cloudy
7:30 AM 77.0 °F - 66.2 °F 69% 29.86 in 6.2 mi Variable 2.3 mph - N/A   Partly Cloudy
8:00 AM 76 °F - 73 °F 88% 29.86 in 6 mi East 2.3 mph - -   Scattered Clouds
8:00 AM 78.8 °F - 68.0 °F 69% 29.86 in 6.2 mi Variable 2.3 mph - N/A   Partly Cloudy
8:30 AM 82.4 °F 84.6 °F 66.2 °F 58% 29.86 in 6.2 mi Variable 2.3 mph - N/A   Partly Cloudy
9:00 AM 86.0 °F 90.4 °F 69.8 °F 58% 29.86 in 6.2 mi Variable 2.3 mph - N/A   Partly Cloudy
9:30 AM 87.8 °F 92.6 °F 69.8 °F 55% 29.83 in 6.2 mi Variable 3.5 mph - N/A   Partly Cloudy
10:00 AM 87.8 °F 90.4 °F 66.2 °F 49% 29.83 in 6.2 mi Variable 2.3 mph - N/A   Partly Cloudy
10:30 AM 89.6 °F 93.4 °F 68.0 °F 49% 29.83 in 6.2 mi Variable 4.6 mph - N/A   Partly Cloudy
11:00 AM 92 °F - 74 °F 47% 29.81 in 6 mi ESE 3.5 mph - -   Scattered Clouds
11:00 AM 91.4 °F 94.0 °F 66.2 °F 43% 29.80 in 6.2 mi Variable 3.5 mph - N/A   Partly Cloudy
11:30 AM 93.2 °F 98.8 °F 69.8 °F 46% 29.80 in 6.2 mi Variable 5.8 mph - N/A   Partly Cloudy
12:00 PM 93.2 °F 100.5 °F 71.6 °F 49% 29.77 in 6.2 mi WNW 9.2 mph - N/A   Partly Cloudy
12:30 PM 93.2 °F 100.5 °F 71.6 °F 49% 29.74 in 6.2 mi West 9.2 mph - N/A   Partly Cloudy
1:00 PM 93.2 °F 102.4 °F 73.4 °F 52% 29.74 in 5.6 mi WNW 10.4 mph - N/A   Partly Cloudy
1:30 PM 93.2 °F 102.4 °F 73.4 °F 52% 29.74 in 5.6 mi NW 11.5 mph - N/A   Partly Cloudy
2:00 PM 92 °F - 76 °F 51% 29.72 in 6 mi WNW 11.5 mph - -   Scattered Clouds
2:00 PM 93.2 °F 105.0 °F 75.2 °F 56% 29.71 in 5.6 mi WNW 11.5 mph - N/A   Partly Cloudy
2:30 PM 91.4 °F 102.5 °F 75.2 °F 59% 29.71 in 5.6 mi WNW 12.7 mph - N/A   Partly Cloudy
3:00 PM 93.2 °F 105.0 °F 75.2 °F 56% 29.71 in 5.0 mi West 10.4 mph - N/A   Scattered Clouds
3:30 PM 91.4 °F 102.5 °F 75.2 °F 59% 29.71 in 5.0 mi West 11.5 mph - N/A   Scattered Clouds
4:00 PM 89.6 °F 99.8 °F 75.2 °F 62% 29.71 in 5.0 mi WSW 12.7 mph - N/A   Scattered Clouds
4:30 PM 89.6 °F 102.2 °F 77.0 °F 66% 29.71 in 5.0 mi West 11.5 mph - N/A   Scattered Clouds
5:00 PM 88 °F - 77 °F 64% 29.74 in 5 mi West 10.4 mph - -   Partly Cloudy
5:00 PM 87.8 °F 97.6 °F 75.2 °F 66% 29.74 in 5.0 mi West 10.4 mph - N/A   Mostly Cloudy
5:30 PM 86.0 °F 95.1 °F 75.2 °F 70% 29.74 in 4.3 mi West 9.2 mph - N/A   Scattered Clouds
6:00 PM 86.0 °F 95.1 °F 75.2 °F 70% 29.74 in 4.3 mi West 6.9 mph - N/A   Scattered Clouds
6:30 PM 86.0 °F 93.4 °F 73.4 °F 66% 29.74 in 4.3 mi West 4.6 mph - N/A   Scattered Clouds
7:00 PM 84.2 °F 92.3 °F 75.2 °F 74% 29.77 in 4.3 mi WNW 3.5 mph - N/A   Partly Cloudy
7:30 PM 84.2 °F 92.3 °F 75.2 °F 74% 29.77 in 5.0 mi Variable 2.3 mph - N/A   Partly Cloudy
8:00 PM 84 °F - 76 °F 71% 29.79 in 5 mi NNW 3.5 mph - -   Scattered Clouds
8:00 PM 84.2 °F 92.3 °F 75.2 °F 74% 29.77 in 5.0 mi NNW 2.3 mph - N/A   Partly Cloudy
8:30 PM 84.2 °F 92.3 °F 75.2 °F 74% 29.80 in 5.0 mi North 2.3 mph - N/A   Partly Cloudy
9:00 PM 80.6 °F 87.1 °F 77.0 °F 89% 29.80 in 5.0 mi NE 3.5 mph - N/A   Partly Cloudy
10:00 PM 80.6 °F 88.1 °F 78.8 °F 94% 29.80 in 5.0 mi SSE 3.5 mph - N/A   Partly Cloudy
10:30 PM 78.8 °F - 77.0 °F 94% 29.80 in 5.0 mi ESE 3.5 mph - N/A   Partly Cloudy
11:00 PM 78 °F - 78 °F 100% 29.81 in 5 mi SSE 3.5 mph - -   Scattered Clouds
11:00 PM 78.8 °F - 78.8 °F 100% 29.80 in 5.0 mi SSE 3.5 mph - N/A   Partly Cloudy
11:30 PM 78.8 °F - 77.0 °F 94% 29.80 in 5.0 mi ESE 1.2 mph - N/A   Partly Cloudy